Location: Manchester NH
(43.0000°N, 71.5000°W)
Time: 22:36:32
(UTC-05:00)

Tiangong 1 - Visible Passes

Search period start: 15 December 2017 00:00
Search period end: 25 December 2017 00:00
Orbit: 275 x 301 km, 42.8° (Epoch: 15 December)

Date Brightness Start Highest point End Pass type
(mag) Time Alt. Az. Time Alt. Az. Time Alt. Az.
19 Dec 3.8 05:41:14 10° SSE 05:41:59 11° SSE 05:42:46 10° SE visible
20 Dec 3.2 05:43:38 10° SSW 05:45:30 19° SSE 05:47:23 10° ESE visible
21 Dec 2.2 05:47:32 17° SSW 05:48:57 30° SSE 05:51:14 10° E visible
22 Dec 1.3 05:51:16 26° SW 05:52:21 48° SSE 05:54:48 10° E visible
23 Dec 0.6 05:54:45 33° WSW 05:55:41 69° S 05:58:11 10° E visible
24 Dec 0.4 05:58:01 34° W 05:58:55 84° S 06:01:26 10° E visible
